W8KVG Weather Reports


time (UTC)temp
C
wind
direction
speed
KPH
gust
KPH
rain 1hr
cm
rain 24hr
cm
rain mn
cm
humidity
%
barometer
mb
20260510033943 11 117 0.0 0.0 0.00 0.36 0.36 99 1008.4
20260510033439 11 62 0.0 3.2 0.00 0.36 0.36 99 1008.4
20260510032937 11 49 0.0 3.2 0.00 0.36 0.36 99 1008.6
20260510032434 11 258 0.0 3.2 0.00 0.36 0.36 99 1008.7
20260510031928 11 165 1.6 3.2 0.00 0.36 0.36 99 1008.6
20260510031424 11 80 0.0 1.6 0.00 0.36 0.36 99 1008.6
20260510030920 11 25 0.0 1.6 0.00 0.36 0.36 99 1008.6
20260510030416 11 15 0.0 3.2 0.00 0.36 0.36 99 1008.5
20260510025914 11 48 0.0 4.8 0.05 0.36 0.36 99 1008.7
20260510025411 11 117 0.0 3.2 0.05 0.36 0.36 99 1008.8
20260510024908 11 177 0.0 3.2 0.05 0.36 0.36 99 1008.9
20260510024404 11 188 1.6 4.8 0.05 0.36 0.36 99 1009.0
20260510023900 11 17 1.6 4.8 0.05 0.33 0.33 99 1008.8
20260510023357 12 26 3.2 4.8 0.05 0.33 0.33 99 1008.9
20260510022854 12 13 0.0 3.2 0.00 0.33 0.33 99 1009.4
20260510022353 11 154 0.0 3.2 0.00 0.33 0.33 99 1009.7
20260510021852 11 50 0.0 0.0 0.00 0.33 0.33 98 1010.1
20260510021350 11 6 0.0 0.0 0.00 0.33 0.33 98 1009.7
20260510020846 12 130 0.0 3.2 0.00 0.33 0.33 98 1009.9
20260510020346 12 2 1.6 4.8 0.05 0.33 0.33 97 1009.7
20260510015842 12 178 0.0 4.8 0.13 0.33 0.33 97 1009.9
20260510015338 12 130 1.6 3.2 0.05 0.33 0.33 96 1009.5
20260510014834 12 40 0.0 8.0 0.05 0.30 0.30 94 1009.5
20260510014331 12 198 4.8 8.0 0.61 0.30 0.30 93 1009.3
20260510013827 13 6 6.4 14.5 0.05 0.23 0.23 86 1009.2
20260510013323 14 274 8.0 20.9 0.00 0.20 0.20 79 1008.9
20260510012818 16 119 1.6 11.3 0.00 0.20 0.20 75 1008.3
20260510012318 16 349 0.0 4.8 0.00 0.20 0.20 69 1007.1
20260510011813 16 129 0.0 3.2 0.00 0.20 0.20 68 1006.6
20260510011308 16 32 0.0 3.2 0.00 0.20 0.20 69 1006.4
20260510010805 16 354 1.6 6.4 0.00 0.20 0.20 68 1006.5
20260510010302 16 0 0.0 3.2 0.00 0.20 0.20 67 1006.4
20260510005759 16 315 0.0 4.8 0.00 0.20 0.20 67 1006.5
20260510005255 16 18 0.0 8.0 0.00 0.20 0.20 67 1006.8
20260510004753 16 345 3.2 4.8 0.00 0.20 0.20 66 1006.5
20260510004250 16 251 0.0 4.8 0.00 0.20 0.20 67 1006.6
20260510003748 16 353 3.2 3.2 0.00 0.20 0.20 67 1006.5
20260510003245 16 18 0.0 4.8 0.00 0.20 0.20 66 1006.6
20260510002743 16 48 0.0 4.8 0.00 0.20 0.20 66 1006.5
20260510002241 17 89 0.0 8.0 0.00 0.20 0.20 64 1006.5
20260510001738 17 2 1.6 4.8 0.00 0.20 0.20 63 1006.4
20260510001236 17 153 1.6 4.8 0.00 0.20 0.20 63 1006.2
20260510000731 17 246 0.0 4.8 0.00 0.20 0.20 62 1006.2
20260510000229 17 198 4.8 9.7 0.00 0.20 0.20 61 1006.1
20260509235725 17 350 1.6 12.9 0.00 0.20 0.20 61 1006.1
20260509235222 17 230 3.2 8.0 0.00 0.20 0.20 61 1006.0
20260509234718 18 189 3.2 19.3 0.00 0.20 0.20 61 1005.9
20260509234215 18 181 3.2 9.7 0.00 0.20 0.20 61 1006.0
20260509233713 18 187 4.8 8.0 0.00 0.20 0.20 61 1005.7
20260509233205 18 200 8.0 19.3 0.00 0.20 0.20 60 1005.8
20260509232701 18 238 3.2 14.5 0.00 0.20 0.20 59 1005.9
20260509232158 19 210 3.2 4.8 0.00 0.20 0.20 58 1005.8
20260509231655 19 203 3.2 8.0 0.00 0.20 0.20 58 1005.9
20260509231152 19 251 3.2 16.1 0.00 0.20 0.20 57 1005.7
20260509230649 20 224 0.0 8.0 0.00 0.20 0.20 57 1005.8
20260509230146 19 217 1.6 19.3 0.00 0.20 0.20 57 1006.0
20260509225642 20 305 4.8 8.0 0.00 0.20 0.20 57 1005.7
20260509225137 20 135 0.0 9.7 0.00 0.20 0.20 57 1005.9
20260509224633 20 308 3.2 14.5 0.00 0.20 0.20 56 1005.9
20260509224130 21 271 0.0 9.7 0.00 0.20 0.20 53 1005.7
20260509223626 21 215 1.6 11.3 0.00 0.20 0.20 52 1005.5
20260509223119 21 189 3.2 8.0 0.00 0.20 0.20 51 1005.3
20260509222614 21 356 0.0 8.0 0.00 0.20 0.20 53 1005.5
20260509222111 21 336 1.6 9.7 0.00 0.20 0.20 53 1005.4
20260509221606 21 295 3.2 11.3 0.00 0.20 0.20 53 1005.6
20260509221103 21 178 3.2 6.4 0.00 0.20 0.20 54 1005.6
20260509220558 20 202 9.7 16.1 0.00 0.20 0.20 54 1005.6
20260509220055 21 318 4.8 17.7 0.00 0.20 0.20 54 1005.8
20260509215550 21 195 6.4 24.1 0.00 0.20 0.20 53 1005.8
20260509215048 21 7 6.4 11.3 0.00 0.20 0.20 53 1005.8
20260509214545 21 124 3.2 12.9 0.00 0.20 0.20 52 1005.7
20260509214042 22 181 4.8 6.4 0.00 0.20 0.20 52 1005.9
20260509213538 21 216 3.2 6.4 0.00 0.20 0.20 53 1005.9
20260509213035 21 189 3.2 12.9 0.00 0.20 0.20 55 1005.9
20260509212532 20 317 1.6 4.8 0.00 0.20 0.20 58 1006.1
20260509212029 21 192 6.4 11.3 0.00 0.20 0.20 55 1005.9
20260509211524 21 196 1.6 17.7 0.00 0.20 0.20 57 1005.8
20260509211021 21 207 8.0 12.9 0.00 0.20 0.20 56 1005.8
20260509210518 21 184 4.8 14.5 0.00 0.20 0.20 56 1006.2
20260509210015 21 266 3.2 16.1 0.00 0.20 0.20 57 1006.1
20260509205509 20 74 0.0 9.7 0.00 0.20 0.20 58 1006.0
20260509205005 20 215 1.6 14.5 0.00 0.20 0.20 61 1006.3
20260509204501 21 95 4.8 11.3 0.00 0.20 0.20 58 1006.3
20260509203957 20 249 0.0 11.3 0.00 0.20 0.20 58 1006.3
20260509203453 20 356 3.2 11.3 0.00 0.20 0.20 56 1006.4
20260509202951 20 5 8.0 11.3 0.00 0.20 0.20 60 1006.5
20260509202447 20 199 1.6 12.9 0.00 0.20 0.20 62 1006.4
20260509201942 20 197 4.8 11.3 0.00 0.20 0.20 61 1006.5
20260509201437 18 204 4.8 11.3 0.00 0.20 0.20 65 1006.8
20260509200935 20 280 4.8 9.7 0.00 0.20 0.20 63 1006.9
20260509200434 20 173 4.8 9.7 0.00 0.20 0.20 60 1006.5
20260509195931 20 296 3.2 11.3 0.00 0.20 0.20 61 1006.8
20260509195427 18 204 0.0 11.3 0.00 0.20 0.20 65 1007.0
20260509194926 19 203 6.4 11.3 0.00 0.20 0.20 64 1007.0
20260509194417 18 295 1.6 9.7 0.00 0.20 0.20 65 1007.3
20260509193914 18 202 9.7 12.9 0.00 0.20 0.20 63 1007.2
20260509193413 19 254 1.6 8.0 0.00 0.20 0.20 64 1007.1
20260509192909 18 192 3.2 8.0 0.00 0.20 0.20 66 1007.1
20260509192405 18 345 1.6 33.8 0.00 0.20 0.20 66 1007.0
20260509191901 18 347 3.2 9.7 0.00 0.20 0.20 69 1007.4
20260509191357 18 355 4.8 24.1 0.00 0.20 0.20 68 1007.2
20260509190853 17 181 0.0 12.9 0.00 0.20 0.20 71 1007.4
20260509190350 17 21 4.8 19.3 0.00 0.20 0.20 72 1007.3
20260509185848 17 230 0.0 8.0 0.00 0.20 0.20 71 1007.3
20260509185344 17 2 3.2 4.8 0.00 0.20 0.20 73 1007.4
20260509184841 17 183 4.8 9.7 0.00 0.20 0.20 72 1007.5
20260509184338 17 187 6.4 12.9 0.00 0.20 0.20 72 1007.7
20260509183835 17 221 4.8 17.7 0.00 0.20 0.20 71 1007.7
20260509183330 18 204 4.8 14.5 0.00 0.20 0.20 70 1007.7
20260509182826 17 232 3.2 14.5 0.00 0.20 0.20 75 1007.7
20260509182324 17 255 3.2 25.7 0.00 0.20 0.20 76 1007.6
20260509181821 16 189 6.4 14.5 0.00 0.20 0.20 76 1007.9
20260509181318 16 31 3.2 9.7 0.00 0.20 0.20 74 1007.7
20260509180815 17 173 6.4 12.9 0.00 0.20 0.20 73 1007.8
20260509180311 17 116 1.6 8.0 0.00 0.20 0.20 74 1007.7
20260509175808 17 166 0.0 6.4 0.00 0.20 0.20 74 1007.8
20260509175306 17 321 8.0 17.7 0.00 0.20 0.20 72 1007.5
20260509174800 16 193 6.4 9.7 0.00 0.20 0.20 75 1007.6
20260509174256 16 267 0.0 12.9 0.00 0.20 0.20 78 1007.7
20260509173752 16 174 4.8 9.7 0.00 0.20 0.20 79 1007.9
20260509173247 15 8 1.6 6.4 0.00 0.20 0.20 80 1007.9
20260509172743 15 195 4.8 11.3 0.00 0.20 0.20 80 1007.9
20260509172241 15 79 0.0 3.2 0.00 0.20 0.20 83 1007.7
20260509171736 15 287 1.6 11.3 0.00 0.20 0.20 82 1007.9
20260509171232 15 189 1.6 4.8 0.00 0.20 0.20 83 1007.7
20260509170729 15 197 3.2 14.5 0.00 0.20 0.20 82 1007.7
20260509170225 15 222 1.6 4.8 0.00 0.20 0.20 83 1007.5
20260509165724 15 171 3.2 9.7 0.00 0.20 0.20 81 1007.5
20260509165219 15 217 0.0 9.7 0.00 0.20 0.20 83 1007.7
20260509164715 15 262 0.0 6.4 0.00 0.20 0.20 85 1007.4
20260509164211 14 348 1.6 4.8 0.00 0.20 0.20 87 1007.6
20260509163709 14 0 0.0 6.4 0.00 0.20 0.20 86 1007.6
20260509163205 14 356 4.8 17.7 0.00 0.20 0.20 84 1007.5
20260509162703 15 196 3.2 6.4 0.00 0.20 0.20 85 1007.7
20260509162158 15 343 0.0 4.8 0.00 0.20 0.20 86 1007.4
20260509161654 15 167 3.2 11.3 0.00 0.20 0.20 85 1007.7
20260509161150 15 59 1.6 11.3 0.00 0.20 0.20 88 1007.6
20260509160645 14 320 4.8 6.4 0.00 0.20 0.20 90 1007.6
20260509160141 13 178 3.2 4.8 0.00 0.20 0.20 91 1007.6
20260509155637 13 198 4.8 9.7 0.00 0.20 0.20 92 1007.7
20260509155134 13 177 4.8 6.4 0.00 0.20 0.20 95 1007.5
20260509154630 12 15 0.0 8.0 0.00 0.20 0.20 95 1007.5
20260509154127 12 231 1.6 9.7 0.00 0.20 0.20 96 1007.7
20260509153624 12 203 0.0 4.8 0.00 0.20 0.20 97 1007.6
20260509153121 12 310 3.2 9.7 0.00 0.20 0.20 98 1007.7
20260509152616 12 215 1.6 4.8 0.00 0.20 0.20 99 1007.6
20260509152114 12 7 0.0 4.8 0.00 0.20 0.20 99 1007.5
20260509151610 12 12 0.0 3.2 0.05 0.20 0.20 99 1007.5
20260509151108 11 173 0.0 6.4 0.05 0.20 0.20 99 1007.7
20260509150605 11 205 0.0 6.4 0.00 0.20 0.20 99 1007.6
20260509150104 11 158 0.0 6.4 0.00 0.20 0.20 99 1007.5
20260509145559 11 13 3.2 6.4 0.00 0.20 0.20 99 1007.6
20260509145054 11 188 3.2 9.7 0.05 0.20 0.20 99 1007.8
20260509144552 11 142 0.0 6.4 0.00 0.18 0.18 99 1007.8
20260509144049 11 186 0.0 3.2 0.05 0.18 0.18 99 1007.8
20260509143546 11 29 0.0 4.8 0.05 0.18 0.18 99 1007.9
20260509143044 11 142 0.0 4.8 0.05 0.18 0.18 99 1007.8
20260509142539 11 83 0.0 4.8 0.13 0.18 0.18 99 1007.8
20260509142035 11 217 0.0 6.4 0.13 0.18 0.18 99 1007.6
20260509141526 11 181 0.0 9.7 0.05 0.15 0.15 99 1007.7
20260509141023 11 279 1.6 8.0 0.05 0.15 0.15 99 1007.5
20260509140519 10 66 0.0 11.3 0.00 0.15 0.15 99 1007.8
20260509140018 11 157 0.0 6.4 0.00 0.15 0.15 99 1007.7
20260509135514 11 186 6.4 8.0 0.00 0.15 0.15 99 1007.7
20260509135012 10 106 1.6 6.4 0.00 0.15 0.15 99 1007.7
20260509134509 10 185 1.6 8.0 0.00 0.15 0.15 99 1007.9
20260509134007 10 115 0.0 4.8 0.00 0.15 0.15 99 1008.0
20260509133503 10 189 4.8 9.7 0.00 0.15 0.15 99 1007.9
20260509133001 10 39 0.0 3.2 0.00 0.15 0.15 99 1007.8
20260509132459 10 183 1.6 9.7 0.00 0.15 0.15 99 1007.9
20260509131956 10 190 4.8 11.3 0.05 0.15 0.15 99 1007.9
20260509131453 10 17 0.0 4.8 0.05 0.15 0.15 99 1007.8
20260509130950 10 9 3.2 8.0 0.00 0.13 0.13 99 1008.0
20260509130445 10 222 0.0 4.8 0.00 0.13 0.13 99 1008.0
20260509125943 10 132 3.2 4.8 0.05 0.13 0.13 99 1007.9
20260509125439 10 193 3.2 8.0 0.05 0.13 0.13 99 1007.9
20260509124935 10 46 0.0 6.4 0.05 0.13 0.13 99 1008.0
20260509124432 10 162 0.0 12.9 0.05 0.10 0.10 99 1008.0
20260509123929 10 176 4.8 12.9 0.05 0.10 0.10 99 1008.0
20260509123427 10 176 3.2 9.7 0.05 0.10 0.10 99 1008.2
20260509122922 10 30 0.0 3.2 0.05 0.10 0.10 99 1008.0
20260509122420 10 44 0.0 3.2 0.00 0.08 0.08 99 1008.0
20260509121916 10 49 1.6 4.8 0.00 0.08 0.08 99 1008.1
20260509121413 10 194 4.8 8.0 0.00 0.08 0.08 99 1007.9
20260509120911 10 265 0.0 4.8 0.00 0.08 0.08 99 1007.9
20260509120409 10 34 1.6 6.4 0.00 0.08 0.08 99 1008.1
20260509115907 10 15 3.2 3.2 0.05 0.08 0.08 99 1008.1
20260509115404 10 197 3.2 4.8 0.05 0.08 0.08 99 1008.0
20260509114901 10 184 4.8 6.4 0.05 0.08 0.08 99 1008.0
20260509114400 10 235 0.0 4.8 0.05 0.08 0.08 99 1008.0
20260509113859 10 355 3.2 3.2 0.05 0.05 0.05 99 1007.9
20260509113355 10 35 1.6 3.2 0.05 0.05 0.05 99 1008.2
20260509112852 10 169 0.0 11.3 0.00 0.05 0.05 99 1008.0
20260509112349 10 161 4.8 8.0 0.05 0.05 0.05 99 1008.0
20260509111847 10 142 0.0 4.8 0.05 0.05 0.05 99 1007.9
20260509111343 10 27 3.2 4.8 0.05 0.05 0.05 99 1007.8
20260509110842 10 331 0.0 3.2 0.00 0.03 0.03 99 1007.7
20260509110337 10 76 0.0 6.4 0.00 0.03 0.03 99 1007.8
20260509105836 10 8 1.6 3.2 0.00 0.03 0.03 99 1007.7
20260509105333 9 147 0.0 3.2 0.00 0.03 0.03 99 1007.8
20260509104829 9 273 1.6 1.6 0.00 0.03 0.03 99 1007.8
20260509104326 9 43 0.0 3.2 0.00 0.03 0.03 99 1007.8
20260509103824 9 329 0.0 1.6 0.00 0.03 0.03 99 1007.7
20260509103321 9 347 1.6 6.4 0.00 0.03 0.03 99 1007.6
20260509102820 9 336 0.0 6.4 0.00 0.03 0.03 99 1007.6
20260509102317 9 190 0.0 3.2 0.00 0.03 0.03 99 1007.7
20260509101812 9 34 0.0 3.2 0.00 0.03 0.03 99 1007.9
20260509101309 9 75 0.0 3.2 0.00 0.03 0.03 99 1007.7
20260509100807 9 9 0.0 4.8 0.00 0.03 0.03 99 1007.8
20260509100304 8 16 0.0 3.2 0.00 0.03 0.03 99 1007.8
20260509095800 8 68 0.0 3.2 0.00 0.03 0.03 99 1007.7
20260509095258 8 24 1.6 3.2 0.00 0.03 0.03 99 1008.0
20260509094755 8 124 0.0 1.6 0.00 0.03 0.03 99 1007.9
20260509094251 8 66 0.0 1.6 0.00 0.03 0.03 99 1007.9
20260509093749 8 66 0.0 3.2 0.00 0.03 0.03 99 1008.1
20260509093246 8 54 0.0 3.2 0.00 0.03 0.03 99 1008.1
20260509092744 8 89 0.0 3.2 0.00 0.03 0.03 99 1008.3
20260509092242 8 33 0.0 3.2 0.00 0.03 0.03 99 1008.0
20260509091740 8 149 0.0 3.2 0.00 0.03 0.03 99 1008.2
20260509091236 8 105 0.0 3.2 0.00 0.03 0.03 99 1008.1
20260509090734 8 51 1.6 3.2 0.00 0.03 0.03 99 1008.1
20260509090231 8 22 0.0 3.2 0.00 0.03 0.03 99 1008.0
20260509085728 8 44 0.0 1.6 0.00 0.03 0.03 99 1008.2
20260509085225 8 75 0.0 1.6 0.00 0.03 0.03 99 1008.4
20260509084722 8 113 0.0 1.6 0.00 0.03 0.03 99 1008.4
20260509084218 8 37 0.0 1.6 0.05 0.03 0.03 99 1008.3
20260509083717 8 110 0.0 1.6 0.05 0.03 0.03 99 1008.4
20260509083213 8 60 0.0 3.2 0.00 0.03 0.03 99 1008.4
20260509082710 8 49 0.0 3.2 0.00 0.03 0.03 99 1008.4
20260509082206 8 69 0.0 0.0 0.00 0.03 0.03 99 1008.4
20260509081703 8 68 1.6 3.2 0.00 0.03 0.03 99 1008.5
20260509081200 8 49 0.0 1.6 0.05 0.03 0.03 99 1008.3
20260509080659 8 69 0.0 3.2 0.05 0.03 0.03 99 1008.1
20260509080156 8 142 0.0 1.6 0.00 0.00 0.00 99 1008.6
20260509075654 8 48 0.0 3.2 0.00 0.00 0.00 99 1008.6
20260509075151 8 140 1.6 3.2 0.00 0.00 0.00 99 1008.7
20260509074648 8 134 0.0 1.6 0.00 0.00 0.00 99 1008.5
20260509074145 8 115 0.0 1.6 0.00 0.00 0.00 99 1008.6
20260509073642 8 135 0.0 1.6 0.00 0.00 0.00 99 1008.5
20260509073138 8 37 0.0 1.6 0.00 0.00 0.00 99 1008.4
20260509072635 8 135 0.0 3.2 0.00 0.00 0.00 99 1008.6
20260509072132 8 205 0.0 3.2 0.05 0.00 0.00 99 1008.6
20260509071628 8 102 0.0 4.8 0.05 0.00 0.00 99 1008.7
20260509071126 8 51 0.0 3.2 0.00 0.00 0.00 99 1008.7
20260509070623 8 96 0.0 3.2 0.00 0.00 0.00 99 1008.5
20260509070119 8 44 0.0 3.2 0.00 0.00 0.00 99 1008.4
20260509065614 8 348 1.6 3.2 0.00 0.00 0.00 99 1008.4
20260509065111 8 66 0.0 3.2 0.00 0.00 0.00 99 1008.5
20260509064608 8 19 3.2 3.2 0.00 0.00 0.00 99 1008.6
20260509064107 8 25 0.0 3.2 0.00 0.00 0.00 99 1008.4
20260509063603 8 75 0.0 1.6 0.00 0.00 0.00 99 1008.4
20260509063059 8 74 0.0 1.6 0.00 0.00 0.00 99 1008.5
20260509062556 8 103 0.0 3.2 0.00 0.00 0.00 99 1008.8
20260509062054 8 189 3.2 4.8 0.00 0.00 0.00 99 1008.8
20260509061550 8 54 1.6 3.2 0.00 0.00 0.00 99 1008.8
20260509061048 8 55 0.0 3.2 0.00 0.00 0.00 99 1008.5
20260509060545 8 104 0.0 3.2 0.00 0.00 0.00 99 1009.1
20260509060041 8 155 1.6 3.2 0.00 0.00 0.00 99 1009.0
20260509055536 8 284 0.0 3.2 0.00 0.00 0.00 99 1009.0
20260509055033 8 61 0.0 1.6 0.00 0.00 0.00 99 1009.0
20260509054529 8 44 0.0 0.0 0.00 0.00 0.00 99 1009.3
20260509054027 8 99 0.0 1.6 0.00 0.00 0.00 99 1009.1
20260509053525 8 30 0.0 3.2 0.00 0.00 0.00 99 1009.3
20260509053016 8 66 0.0 3.2 0.00 0.00 0.00 99 1009.5
20260509052514 8 161 1.6 3.2 0.00 0.00 0.00 99 1009.4
20260509052012 8 63 0.0 1.6 0.00 0.00 0.00 99 1009.5
20260509051510 8 164 0.0 1.6 0.00 0.00 0.00 99 1009.7
20260509051007 8 75 0.0 0.0 0.00 0.00 0.00 99 1009.5
20260509050503 8 89 0.0 0.0 0.00 0.00 0.00 99 1009.5
20260509050000 8 0 0.0 1.6 0.00 0.00 0.00 99 1009.9
20260509045457 8 113 0.0 1.6 0.00 0.00 0.00 99 1009.7
20260509044954 8 5 0.0 1.6 0.00 0.00 0.00 99 1009.7
20260509044452 8 36 0.0 1.6 0.00 0.00 0.00 99 1009.7
20260509043949 9 30 0.0 1.6 0.00 0.00 0.00 99 1009.5
20260509043444 9 50 0.0 1.6 0.00 0.00 0.00 99 1009.7
20260509042940 9 104 0.0 1.6 0.00 0.00 0.00 99 1009.9
20260509042437 9 195 0.0 1.6 0.00 0.00 0.00 99 1010.0
20260509041933 9 138 0.0 1.6 0.00 0.00 0.00 99 1010.1
20260509041430 9 354 0.0 0.0 0.00 0.00 0.00 99 1010.1
20260509040928 9 354 0.0 0.0 0.00 0.00 0.00 99 1010.3
20260509040426 9 75 0.0 0.0 0.00 0.00 0.00 99 1010.4
20260509035922 9 75 0.0 0.0 0.00 0.15 0.15 99 1010.2
20260509035420 9 75 0.0 0.0 0.05 0.15 0.15 99 1010.6
20260509034916 9 75 0.0 0.0 0.00 0.15 0.15 99 1010.6
20260509034414 9 75 0.0 0.0 0.00 0.15 0.15 99 1010.7